Weather History for KSFF - December, 2013

Change the Weather History Date:

Saturday, December 7, 2013

  Actual Average Record
Temperature  
Mean Temperature 11 °F 30 °F  
Max Temperature 19 °F 36 °F - ()
Min Temperature 3 °F 25 °F - ()
Degree Days  
Heating Degree Days 54 34  
Month to date heating degree days 293 236  
Since 1 July heating degree days 1819 1810  
Cooling Degree Days 0 0  
Month to date cooling degree days 0 0  
Year to date cooling degree days 704 406  
Moisture  
Dew Point -8 °F    
Average Humidity 50    
Maximum Humidity 72    
Minimum Humidity 28    
Precipitation  
Precipitation 0.00 in 0.08 in - ()
Month to date precipitation 0.26 0.59  
Year to date precipitation 13.51 15.81  
Sea Level Pressure  
Sea Level Pressure 30.34 in    
Wind  
Wind Speed 3 mph (NE)    
Max Wind Speed 15 mph    
Max Gust Speed 21 mph    
Visibility 10 miles    
Events      
T = Trace of Precipitation, MM = Missing Value Source: NWS Daily Summary

Daily Weather History Graph

Daily Weather History Graph

Search for Another Location

Airport or City:

Trip Planner

Search our weather history database for the weather conditions in past years. The results will help you decide how hot, cold, wet, or windy it might be!

Date:

Astronomy

Dec. 07, 2013 Rise Set
Actual Time 7:24 AM PST 3:57 PM PST
Civil Twilight 6:48 AM PST 4:33 PM PST
Nautical Twilight 6:09 AM PST 5:12 PM PST
Astronomical Twilight 5:31 AM PST 5:49 PM PST
Moon 10:56 AM PST (12/7) 10:02 PM PST (12/7)
Length of Visible Light 9h 44m
Length of Day
8h 33m
Waxing Crescent, 30% of the Moon is Illuminated
Dec 7
Waxing Crescent
Dec 9
First Quarter
Dec 17
Full
Dec 25
Last Quarter
Jan 1
New

Hourly Weather History & Observations

Time (PST) Temp. Windchill Dew Point Humidity Pressure Visibility Wind Dir Wind Speed Gust Speed Precip Events Conditions
12:53 AM 9.0 °F -0.9 °F -7.1 °F 48% 30.29 in 10.0 mi North 5.8 mph - N/A   Clear
1:53 AM 9.0 °F -2.2 °F -8.0 °F 46% 30.29 in 10.0 mi Variable 6.9 mph - N/A   Clear
2:53 AM 7.0 °F -4.5 °F -9.9 °F 46% 30.29 in 10.0 mi NNE 6.9 mph - N/A   Clear
3:53 AM 7.0 °F -3.3 °F -11.0 °F 44% 30.28 in 10.0 mi NNE 5.8 mph - N/A   Clear
4:53 AM 7.0 °F -4.5 °F -11.0 °F 44% 30.28 in 10.0 mi NNE 6.9 mph - N/A   Clear
5:53 AM 6.1 °F -2.8 °F -13.0 °F 41% 30.30 in 10.0 mi Variable 4.6 mph - N/A   Clear
6:53 AM 6.1 °F - -14.1 °F 39% 30.30 in 10.0 mi Calm Calm - N/A   Clear
7:53 AM 6.1 °F - -11.0 °F 45% 30.32 in 10.0 mi Calm Calm - N/A   Clear
8:53 AM 9.0 °F - -11.9 °F 38% 30.33 in 10.0 mi Calm Calm - N/A   Clear
9:53 AM 12.9 °F 3.8 °F -11.9 °F 32% 30.32 in 10.0 mi ENE 5.8 mph - N/A   Clear
10:53 AM 15.1 °F 9.4 °F -11.9 °F 29% 30.31 in 10.0 mi Variable 3.5 mph - N/A   Clear
11:53 AM 16.0 °F 7.4 °F -11.9 °F 28% 30.30 in 10.0 mi East 5.8 mph - N/A   Clear
12:53 PM 18.0 °F 12.7 °F -9.9 °F 29% 30.30 in 10.0 mi Variable 3.5 mph - N/A   Clear
1:53 PM 17.1 °F 8.7 °F -11.9 °F 27% 30.30 in 10.0 mi SW 5.8 mph - N/A   Clear
2:53 PM 17.1 °F 11.7 °F -9.9 °F 30% 30.31 in 10.0 mi Variable 3.5 mph - N/A   Clear
3:53 PM 15.1 °F - -6.0 °F 39% 30.33 in 10.0 mi Calm Calm - N/A   Clear
4:53 PM 12.0 °F - -5.1 °F 46% 30.36 in 10.0 mi Calm Calm - N/A   Clear
5:53 PM 10.0 °F - -2.9 °F 56% 30.37 in 10.0 mi Calm Calm - N/A   Clear
6:53 PM 8.1 °F - -2.0 °F 64% 30.40 in 10.0 mi Calm Calm - N/A   Clear
7:53 PM 5.0 °F - -4.0 °F 66% 30.41 in 10.0 mi Calm Calm - N/A   Clear
8:53 PM 7.0 °F - -5.1 °F 58% 30.41 in 10.0 mi Calm Calm - N/A   Clear
9:53 PM 7.0 °F 0.1 °F -2.9 °F 64% 30.42 in 10.0 mi Variable 3.5 mph - N/A   Clear
10:53 PM 3.9 °F -3.4 °F -4.0 °F 70% 30.42 in 9.0 mi ESE 3.5 mph - N/A   Clear
11:53 PM 5.0 °F - -5.1 °F 63% 30.42 in 10.0 mi Calm Calm - N/A   Clear